[[{"header":{"parameterUnit":"m.s-1","parameterCategory":1,"la1":30.2991,"la2":30.254,"lo1":-89.0895,"lo2":-89.0444,"dy":0.0017,"dx":0.0017,"nx":28,"ny":28,"refTime":"2025-01-12T03:00:00:Z","depth":0,"parameterNumber":2,"parameterNumberName":"U-component_of_WINDS"},"data":[0,0,0,0,0,0,0,0,0,0,0,0,0,0,0,0,0,0,0,0,0,0,0,0,0,0,0,0,0,0,0,0,0,0,0,0,0,0,0,0,0,0,0,0,0,0,0,0,0,0,0,0,0,0,0,0,0,0,-4.0218,-4.0218,0,-4.0225,-4.0225,-4.0225,-4.008,-4.0076,-4.0072,-4.0068,-4.0078,-4.0082,-4.0086,0,0,0,0,0,0,0,0,0,0,0,0,0,-4.0081,-4.0084,-4.0218,-4.0218,-4.0218,-4.0225,-4.0225,-4.0225,-4.008,-4.0076,-4.0071,-4.0066,-4.0077,-4.0081,-4.0086,0,0,0,0,0,0,0,0,0,0,0,0,0,-4.012,-4.0085,-4.0218,-4.0147,-4.014,-4.0225,-4.0225,-4.0225,-4.0081,-4.0076,-4.007,-4.0064,-4.0075,-4.0081,-4.0087,-4.0241,0,0,-4.0105,-4.0107,0,0,0,0,0,0,0,0,-4.0118,-4.0125,-4.0157,-4.0152,-4.0145,-4.0145,-4.018,-4.023,-4.0083,-4.0104,-4.0068,-4.0061,-4.0105,-4.0108,-4.0123,-4.0241,-4.0242,-4.0105,-4.0109,-4.0111,-4.0113,0,0,0,0,0,0,0,-4.0115,-4.0124,-4.0221,-4.0158,-4.015,-4.0115,-4.0114,-4.0189,-4.0138,-4.0102,-4.0091,-4.0094,-4.0101,-4.0117,-4.0122,-4.0242,-4.0105,-4.011,-4.0114,-4.0116,-4.0486,-4.0492,0,0,0,0,0,0,-4.0122,-4.0122,-4.022,-4.0221,-4.0116,-4.0122,-4.0121,-4.0151,-4.0136,-4.0128,-4.0099,-4.0087,-4.011,-4.0115,-4.0122,-4.03,-4.0111,-4.0117,-4.012,-4.0479,-4.0487,-4.0494,0,0,0,0,0,0,-4.0119,-4.0132,-4.022,-4.0169,-4.0177,-4.0131,-4.0166,-4.0154,-4.0171,-4.0134,-4.0124,-4.0125,-4.0106,-4.0113,-4.0212,-4.0298,-4.0119,-4.0125,-4.0472,-4.0482,-4.049,-4.0659,0,0,0,0,0,0,-4.0116,-4.0132,-4.019,-4.0171,-4.0181,-4.031,-4.0171,-4.0159,-4.0181,-4.0165,-4.0156,-4.0149,-4.0102,-4.0204,-4.0218,-4.0303,-4.0129,-4.0464,-4.0476,-4.0487,-4.0645,-4.0673,-4.0696,0,0,0,0,0,-4.0112,-4.0238,-4.0193,-4.0206,-4.0252,-4.0315,-4.0321,-4.0263,-4.0188,-4.0246,-4.0223,-4.0149,-4.0287,-4.0215,-4.0229,-4.0318,-4.0458,-4.0473,-4.0486,-4.0634,-4.0667,-4.0696,0,0,0,0,0,0,-4.0269,-4.0234,-4.0184,-4.0308,-4.0316,-4.0291,-4.0362,-4.0301,-4.033,-4.0315,-4.0243,-4.0242,-4.0352,-4.0345,-4.0266,-4.0466,-4.0359,-4.0377,-4.0466,-4.0498,-4.0523,-4.0522,-4.0134,0,0,0,0,0,-4.0317,-4.0371,-4.0338,-4.0451,-4.0457,-4.0409,-4.0435,-4.039,-4.0395,-4.0398,-4.0381,-4.039,-4.0435,-4.0466,-4.0505,-4.0643,-4.0639,-4.0711,-4.0737,-4.0758,-4.0774,-4.0846,-4.0877,-4.054,-4.054,-4.054,0,0,-4.0419,-4.0407,-4.0446,-4.0482,-4.0482,-4.054,-4.0413,-4.048,-4.0522,-4.0408,-4.0499,-4.0488,-4.0493,-4.0612,-4.0663,-4.0609,-4.0866,-4.0776,-4.0793,-4.0798,-4.0864,-4.0896,-4.0924,-4.055,-4.0548,-4.0546,0,0,-4.0634,-4.063,-4.0723,-4.0726,-4.0728,-4.0695,-4.0717,-4.0702,-4.0689,-4.078,-4.0695,-4.0745,-4.0824,-4.083,-4.0844,-4.1061,-4.0994,-4.1076,-4.1209,-4.128,-4.1306,-4.1329,-4.1406,-4.1434,-4.1092,-4.1092,-4.1093,0,-4.076,-4.0843,-4.0778,-4.085,-4.0869,-4.0767,-4.086,-4.0867,-4.0882,-4.0898,-4.0836,-4.0933,-4.0929,-4.1047,-4.11,-4.1115,-4.1138,-4.1076,-4.1308,-4.133,-4.1351,-4.1423,-4.1452,-4.1102,-4.1101,-4.11,-4.1099,0,-4.0998,-4.1057,-4.1132,-4.1148,-4.1175,-4.1258,-4.1205,-4.124,-4.1193,-4.1167,-4.126,-4.1252,-4.1287,-4.1312,-4.1267,-4.1424,-4.139,-4.132,-4.1211,-4.1394,-4.146,-4.1488,-4.1116,-4.1113,-4.111,-4.1107,0,0,-4.1312,-4.1291,-4.1319,-4.1325,-4.1319,-4.1364,-4.1442,-4.1475,-4.1507,-4.1521,-4.1584,-4.1653,-4.1587,-4.1603,-4.1558,-4.162,-4.1791,-4.1542,-4.154,-4.1588,-4.1963,-4.2016,-4.2049,-4.1747,-4.1752,-4.1756,-4.1962,0,-4.152,-4.1651,-4.1594,-4.1731,-4.1784,-4.1688,-4.1756,-4.1761,-4.1738,-4.1781,-4.1756,-4.1806,-4.1716,-4.1725,-4.1782,-4.1759,-4.1866,-4.1743,-4.1806,-4.1809,-4.1807,-4.2084,-4.2139,-4.2334,-4.1988,-4.1993,-4.1996,0,-4.178,-4.1804,-4.1946,-4.1929,-4.195,-4.2012,-4.2037,-4.2079,-4.2082,-4.2061,-4.2079,-4.2019,-4.2095,-4.1987,-4.209,-4.2008,-4.203,-4.2023,-4.2029,-4.2032,-4.1913,-4.2094,-4.2395,-4.2424,-4.2036,-4.2033,-4.203,0,-4.1994,-4.2061,-4.2154,-4.2162,-4.2146,-4.2192,-4.2187,-4.2184,-4.2208,-4.2231,-4.2245,-4.2277,-4.2295,-4.2321,-4.2272,-4.2198,-4.2382,-4.227,-4.2367,-4.2368,-4.2409,-4.2407,-4.2718,-4.2425,-4.2425,-4.2424,-4.2424,0,-4.2232,-4.2322,-4.225,-4.2307,-4.2405,-4.234,-4.2439,-4.2424,-4.2422,-4.2475,-4.2395,-4.2446,-4.2378,-4.2424,-4.2386,-4.2476,-4.2485,-4.2471,-4.2459,-4.2477,-4.2479,-4.249,-4.2475,-4.2432,-4.243,-4.2429,-4.2428,0,-4.2487,-4.2442,-4.2537,-4.2514,-4.251,-4.2583,-4.2563,-4.2616,-4.2587,-4.2655,-4.2668,-4.2624,-4.2673,-4.2626,-4.2673,-4.2647,-4.2768,-4.2738,-4.2767,-4.2758,-4.2856,-4.2847,-4.3184,-4.3225,-4.2908,-4.2911,-4.2914,0,-4.2641,-4.2708,-4.2691,-4.272,-4.272,-4.2769,-4.2792,-4.273,-4.2757,-4.2765,-4.2817,-4.2858,-4.2888,-4.2971,-4.2944,-4.2979,-4.2948,-4.3064,-4.2953,-4.2968,-4.2948,-4.2945,-4.295,-4.3086,-4.309,-4.3093,-4.3096,0,-4.2919,-4.2893,-4.2929,-4.2958,-4.2987,-4.3007,-4.3021,-4.3049,-4.2985,-4.3021,-4.3069,-4.3092,-4.3139,-4.3181,-4.3208,-4.3203,-4.314,-4.3131,-4.3155,-4.3173,-4.3187,-4.3179,-4.2827,-4.3123,-4.312,-4.3118,-4.3117,-4.3116,-4.3127,-4.3182,-4.3178,-4.3221,-4.3224,-4.3239,-4.3286,-4.3263,-4.3302,-4.3334,-4.3296,-4.3355,-4.3355,-4.3384,-4.3388,-4.3433,-4.3384,-4.3419,-4.3428,-4.3437,-4.3451,-4.3181,-4.3438,-4.3437,-4.3436,-4.3436,-4.3435,0,-4.34,-4.3393,-4.3433,-4.3453,-4.3487,-4.3423,-4.3434,-4.3467,-4.3519,-4.3525,-4.3555,-4.3611,-4.3651,-4.3627,-4.3662,-4.3703,-4.3674,-4.3714,-4.371,-4.3709,-4.3493,-4.3469,-4.3736,-4.3736,-4.3736,-4.3736,-4.3736,-4.3736,-4.3546,-4.3634,-4.3608,-4.3698,-4.3689,-4.3746,-4.3758,-4.377,-4.3774,-4.3839,-4.3872,-4.3855,-4.3849,-4.3882,-4.3917,-4.3908,-4.3924,-4.3975,-4.3956,-4.3755,-4.3725,-4.3697,-4.3673,-4.3979,-4.3979,-4.4168,-4.417,-4.4171]},{"header":{"parameterUnit":"m.s-1","parameterCategory":1,"la1":30.2991,"la2":30.254,"lo1":-89.0895,"lo2":-89.0444,"dy":0.0017,"dx":0.0017,"nx":28,"ny":28,"refTime":"2025-01-12T03:00:00:Z","depth":0,"parameterNumber":3,"parameterNumberName":"V-component_of_WINDS"},"data":[0,0,0,0,0,0,0,0,0,0,0,0,0,0,0,0,0,0,0,0,0,0,0,0,0,0,0,0,0,0,0,0,0,0,0,0,0,0,0,0,0,0,0,0,0,0,0,0,0,0,0,0,0,0,0,0,0,0,-1.3198,-1.3198,0,-1.3198,-1.3198,-1.3198,-1.3211,-1.3211,-1.3212,-1.3212,-1.321,-1.321,-1.3209,0,0,0,0,0,0,0,0,0,0,0,0,0,-1.3205,-1.3205,-1.3198,-1.3198,-1.3198,-1.3198,-1.3198,-1.3198,-1.3211,-1.3211,-1.3212,-1.3212,-1.321,-1.321,-1.3209,0,0,0,0,0,0,0,0,0,0,0,0,0,-1.3203,-1.3205,-1.3198,-1.3205,-1.3205,-1.3198,-1.3198,-1.3198,-1.3211,-1.3211,-1.3212,-1.3212,-1.321,-1.321,-1.3209,-1.3195,0,0,-1.3207,-1.3207,0,0,0,0,0,0,0,0,-1.3203,-1.3203,-1.3204,-1.3204,-1.3205,-1.3205,-1.32,-1.3197,-1.3211,-1.3209,-1.3212,-1.3213,-1.3208,-1.3207,-1.3206,-1.3195,-1.3195,-1.3207,-1.3207,-1.3207,-1.3207,0,0,0,0,0,0,0,-1.3204,-1.3203,-1.3198,-1.3204,-1.3204,-1.3206,-1.3206,-1.3199,-1.3205,-1.3209,-1.321,-1.321,-1.3208,-1.3207,-1.3206,-1.3195,-1.3207,-1.3207,-1.3206,-1.3206,-1.3168,-1.3168,0,0,0,0,0,0,-1.3203,-1.3203,-1.3198,-1.3198,-1.3205,-1.3206,-1.3206,-1.3204,-1.3205,-1.3206,-1.3209,-1.321,-1.3207,-1.3207,-1.3206,-1.3187,-1.3207,-1.3206,-1.3206,-1.3169,-1.3168,-1.3168,0,0,0,0,0,0,-1.3203,-1.3203,-1.3198,-1.3201,-1.32,-1.3205,-1.3203,-1.3204,-1.3203,-1.3206,-1.3206,-1.3207,-1.3208,-1.3207,-1.3197,-1.3188,-1.3206,-1.3205,-1.317,-1.3169,-1.3168,-1.3151,0,0,0,0,0,0,-1.3203,-1.3203,-1.3199,-1.3201,-1.32,-1.319,-1.3203,-1.3204,-1.3202,-1.3203,-1.3204,-1.3204,-1.3208,-1.3198,-1.3197,-1.3187,-1.3205,-1.3171,-1.3169,-1.3168,-1.3153,-1.315,-1.3147,0,0,0,0,0,-1.3204,-1.3194,-1.3198,-1.3198,-1.3195,-1.319,-1.3189,-1.3195,-1.3201,-1.3196,-1.3197,-1.3204,-1.3189,-1.3197,-1.3195,-1.3186,-1.3171,-1.317,-1.3168,-1.3154,-1.315,-1.3147,0,0,0,0,0,0,-1.3191,-1.3195,-1.3199,-1.3191,-1.319,-1.3192,-1.3186,-1.3191,-1.3188,-1.3189,-1.3195,-1.3195,-1.3184,-1.3184,-1.3192,-1.317,-1.3181,-1.3179,-1.3171,-1.3167,-1.3165,-1.3164,-1.3204,0,0,0,0,0,-1.3187,-1.3183,-1.3187,-1.3178,-1.3178,-1.3182,-1.318,-1.3183,-1.3183,-1.3182,-1.3183,-1.3181,-1.3175,-1.3172,-1.3167,-1.3153,-1.3151,-1.3145,-1.3143,-1.314,-1.3138,-1.3127,-1.3124,-1.3163,-1.3163,-1.3163,0,0,-1.318,-1.3181,-1.3178,-1.3176,-1.3176,-1.317,-1.3182,-1.3176,-1.3171,-1.3181,-1.3171,-1.3171,-1.3169,-1.3156,-1.3151,-1.3156,-1.3127,-1.3139,-1.3137,-1.3136,-1.3125,-1.3122,-1.3118,-1.3162,-1.3162,-1.3162,0,0,-1.3162,-1.3164,-1.3156,-1.3155,-1.3154,-1.3156,-1.3154,-1.3155,-1.3155,-1.3146,-1.3152,-1.3146,-1.3137,-1.3134,-1.3132,-1.3109,-1.3114,-1.3108,-1.3094,-1.3083,-1.308,-1.3077,-1.3066,-1.3062,-1.3106,-1.3106,-1.3106,0,-1.3152,-1.3145,-1.3151,-1.3143,-1.3141,-1.315,-1.314,-1.3139,-1.3136,-1.3133,-1.314,-1.3126,-1.3126,-1.3111,-1.3105,-1.3104,-1.3099,-1.3107,-1.308,-1.3077,-1.3075,-1.3064,-1.306,-1.3105,-1.3105,-1.3105,-1.3105,0,-1.3131,-1.3125,-1.3119,-1.3116,-1.3112,-1.3104,-1.3107,-1.3103,-1.3106,-1.3107,-1.3095,-1.3094,-1.3088,-1.3085,-1.3089,-1.3069,-1.3072,-1.3079,-1.309,-1.307,-1.306,-1.3056,-1.3104,-1.3104,-1.3104,-1.3104,0,0,-1.3107,-1.3105,-1.3103,-1.31,-1.3098,-1.3093,-1.3084,-1.3078,-1.3072,-1.307,-1.306,-1.3051,-1.3056,-1.3053,-1.3057,-1.3047,-1.3026,-1.3055,-1.3055,-1.3047,-1.3,-1.2993,-1.2989,-1.3029,-1.3029,-1.3028,-1.2999,0,-1.3088,-1.3073,-1.3077,-1.3061,-1.3054,-1.3061,-1.3052,-1.3049,-1.3049,-1.3041,-1.3041,-1.3033,-1.3043,-1.304,-1.3032,-1.303,-1.3016,-1.3033,-1.3018,-1.3017,-1.3016,-1.2984,-1.2978,-1.2951,-1.2996,-1.2995,-1.2995,0,-1.3065,-1.306,-1.3043,-1.304,-1.3037,-1.3029,-1.3022,-1.3016,-1.3011,-1.3011,-1.3006,-1.301,-1.2998,-1.301,-1.2992,-1.3003,-1.2997,-1.2995,-1.2994,-1.2991,-1.3004,-1.2979,-1.2943,-1.2938,-1.2989,-1.299,-1.299,0,-1.3046,-1.3035,-1.3023,-1.3021,-1.3017,-1.3011,-1.3009,-1.3005,-1.2999,-1.2993,-1.2989,-1.2981,-1.2976,-1.2968,-1.2969,-1.2978,-1.2949,-1.2962,-1.2947,-1.2946,-1.294,-1.294,-1.29,-1.2939,-1.2939,-1.2939,-1.2939,0,-1.3023,-1.3012,-1.3014,-1.3007,-1.2993,-1.2996,-1.2982,-1.2981,-1.2976,-1.2967,-1.2972,-1.2963,-1.2965,-1.2955,-1.2955,-1.2938,-1.2937,-1.2934,-1.2934,-1.2933,-1.2933,-1.2928,-1.2929,-1.2938,-1.2939,-1.2939,-1.2939,0,-1.3,-1.3001,-1.2988,-1.2984,-1.2983,-1.2973,-1.2969,-1.2961,-1.296,-1.2947,-1.2944,-1.2943,-1.2931,-1.2931,-1.2918,-1.2917,-1.2895,-1.2899,-1.2897,-1.2897,-1.2881,-1.2881,-1.2835,-1.2828,-1.2874,-1.2873,-1.2873,0,-1.2986,-1.2977,-1.2972,-1.2966,-1.2963,-1.2953,-1.2947,-1.2949,-1.2943,-1.2934,-1.2926,-1.2914,-1.2905,-1.2885,-1.2882,-1.287,-1.2871,-1.2856,-1.287,-1.2867,-1.2868,-1.2867,-1.2865,-1.2853,-1.2852,-1.2852,-1.2852,0,-1.2958,-1.2958,-1.295,-1.2941,-1.2933,-1.2926,-1.292,-1.2914,-1.2915,-1.2906,-1.2894,-1.2887,-1.2871,-1.2858,-1.2847,-1.2843,-1.2846,-1.2847,-1.2843,-1.284,-1.2838,-1.2836,-1.2887,-1.2848,-1.2849,-1.2849,-1.2849,-1.2849,-1.2937,-1.2928,-1.2922,-1.2912,-1.2907,-1.2899,-1.289,-1.2887,-1.2877,-1.2865,-1.2866,-1.2851,-1.2843,-1.2827,-1.2822,-1.2808,-1.2813,-1.2808,-1.2806,-1.2804,-1.28,-1.2842,-1.2807,-1.2807,-1.2807,-1.2807,-1.2807,0,-1.2908,-1.2903,-1.2894,-1.2883,-1.2874,-1.2879,-1.287,-1.2862,-1.2849,-1.2841,-1.2831,-1.2814,-1.2801,-1.2795,-1.2781,-1.2772,-1.2772,-1.2768,-1.2767,-1.2765,-1.2798,-1.2802,-1.2767,-1.2767,-1.2767,-1.2767,-1.2767,-1.2767,-1.2891,-1.2876,-1.2874,-1.2854,-1.285,-1.2835,-1.283,-1.2822,-1.2815,-1.2796,-1.2785,-1.2781,-1.2773,-1.2758,-1.2745,-1.2743,-1.2736,-1.273,-1.2729,-1.276,-1.2764,-1.2767,-1.2771,-1.2729,-1.2729,-1.2697,-1.2696,-1.2696]}]]